Flag for Azerbaijan Weather past 2 weeks in Ganja, Azerbaijan

Now
77 °F

Passing clouds.


Feels Like: 78 °F
Forecast: 69 / 94 °F
Wind: 2 mph from Southeast

Location: Gyanca Airport

Current Time: Jul 6, 2015 at 4:45:39 AM

Latest Report: Jul 6, 2015 at 4:00 AM


Visibility: N/A

Pressure: 29.89 "Hg

Humidity: 44%

Dew point: 54 °F

Location of GanjaLocation

Historic Weather in Ganja — Graph

°F

Ganja temperature yesterday

Maximum temperature yesterday: 93 °F (at 2:30 PM)
Minimum temperature yesterday: 73 °F (at 7:00 AM)
Average temperature yesterday: 84 °F

Past Weeks' High & Low Weather Summary

 TemperatureHumidityPressure
High102 °F (Jun 22, 5:00 PM)78% (Jun 26, 8:30 AM)30.07 "Hg (Jun 26, 8:30 AM)
Low70 °F (Jun 26, 8:30 AM)10% (Jun 22, 5:00 PM)29.53 "Hg (Jun 25, 7:30 PM)
Average84 °F38%29.80 "Hg
* Reported Jun 21 3:00 AM — Jul 6 3:00 AM, Ganja, Weather by CustomWeather, © 2015

Note: Actual official high and low records may vary slightly from our data, if they occured in-between our weather recording intervals... More about our weather records

Advertising

Ganja weather history for previous 24 hours

 ConditionsComfort  
Time TempWeatherWind HumidityBarometerVisibility
3:00 AM
Mon, Jul 6
79 °FPassing clouds.No wind45%29.89 "HgN/A
2:00 AM77 °FPassing clouds.No wind47%29.89 "HgN/A
1:00 AM79 °FPassing clouds.No wind42%29.89 "HgN/A
12:00 AM81 °FPassing clouds.5 mph39%29.92 "HgN/A
11:00 PM
Sun, Jul 5
82 °FPassing clouds.5 mph35%29.92 "HgN/A
10:30 PM82 °FPassing clouds.6 mph35%29.92 "HgN/A
10:00 PM84 °FPassing clouds.7 mph31%29.92 "HgN/A
8:30 PM88 °FPassing clouds.10 mph29%29.92 "HgN/A
8:00 PM90 °FPassing clouds.10 mph27%29.89 "HgN/A
7:30 PM90 °FPassing clouds.12 mph26%29.89 "HgN/A
7:00 PM91 °FPassing clouds.13 mph23%29.92 "HgN/A
6:30 PM91 °FPassing clouds.14 mph24%29.92 "HgN/A
6:00 PM93 °FPassing clouds.15 mph23%29.92 "HgN/A
5:30 PM93 °FPassing clouds.16 mph23%29.92 "HgN/A
4:30 PM91 °FPassing clouds.17 mph23%29.95 "HgN/A
4:00 PM91 °FPassing clouds.20 mph23%29.95 "HgN/A
3:30 PM93 °FPassing clouds.18 mph23%29.95 "HgN/A
3:00 PM93 °FScattered clouds.21 mph23%29.95 "HgN/A
2:30 PM93 °FScattered clouds.18 mph20%29.98 "HgN/A
2:00 PM91 °FScattered clouds.8 mph23%29.98 "HgN/A
1:30 PM90 °FScattered clouds.5 mph26%30.01 "HgN/A
1:00 PM90 °FScattered clouds.5 mph27%30.01 "HgN/A
12:30 PM88 °FScattered clouds.5 mph29%30.01 "HgN/A
12:00 PM86 °FScattered clouds.7 mph31%30.04 "HgN/A
11:30 AM84 °FScattered clouds.10 mph33%30.04 "HgN/A
11:00 AM84 °FScattered clouds.12 mph31%30.04 "HgN/A
10:30 AM84 °FScattered clouds.14 mph31%N/AN/A
10:00 AM81 °FScattered clouds.7 mph34%30.04 "HgN/A
9:30 AM79 °FScattered clouds.3 mph39%30.04 "HgN/A
8:30 AM77 °FScattered clouds.2 mph39%30.04 "HgN/A
8:00 AM75 °FPassing clouds.3 mph41%30.04 "HgN/A
7:30 AM77 °FPassing clouds.5 mph42%30.04 "HgN/A
7:00 AM73 °FPassing clouds.3 mph44%30.04 "HgN/A
6:30 AM75 °FPassing clouds.6 mph41%30.04 "HgN/A
6:00 AM77 °FPassing clouds.7 mph36%30.04 "HgN/A
5:30 AM77 °FPassing clouds.5 mph44%30.04 "HgN/A
5:00 AM77 °FPassing clouds.2 mph42%30.01 "HgN/A
4:30 AM77 °FPassing clouds.5 mph39%30.01 "HgN/A
Weather by CustomWeather, © 2015

See weather overviewHow to use our weather pages